| time (UTC) | temp F | wind direction | speed knots | gust knots | rain 1hr in | rain 24hr in | rain mn in | humidity % | barometer mb |
| 20260906214101 | 91 | 360 | 3.5 | 0.0 | 0.00 | 0.00 | 0.02 | 46 | 1006.8 |
| 20260906213601 | 90 | 360 | 1.7 | 0.0 | 0.00 | 0.00 | 0.02 | 43 | 1006.8 |
| 20260906213059 | 90 | 360 | 2.6 | 0.0 | 0.00 | 0.00 | 0.02 | 43 | 1007.0 |
| 20260906212555 | 90 | 265 | 3.5 | 0.0 | 0.00 | 0.00 | 0.02 | 44 | 1007.1 |
| 20260906212055 | 90 | 360 | 3.5 | 0.0 | 0.00 | 0.00 | 0.02 | 44 | 1007.2 |
| 20260906211557 | 90 | 360 | 3.5 | 0.0 | 0.00 | 0.00 | 0.02 | 44 | 1007.2 |
| 20260906211054 | 90 | 265 | 4.3 | 0.0 | 0.00 | 0.00 | 0.02 | 44 | 1007.3 |
| 20260906210552 | 89 | 321 | 3.5 | 0.0 | 0.00 | 0.00 | 0.02 | 46 | 1007.4 |
| 20260906210052 | 89 | 313 | 3.5 | 0.0 | 0.00 | 0.00 | 0.02 | 46 | 1007.5 |
| 20260906205551 | 88 | 360 | 3.5 | 0.0 | 0.00 | 0.00 | 0.02 | 46 | 1007.7 |
| 20260906205050 | 88 | 360 | 4.3 | 0.0 | 0.00 | 0.00 | 0.02 | 47 | 1007.7 |
| 20260906204049 | 88 | 360 | 5.2 | 0.0 | 0.00 | 0.00 | 0.02 | 47 | 1007.8 |
| 20260906203548 | 88 | 360 | 5.2 | 0.0 | 0.00 | 0.00 | 0.02 | 48 | 1007.9 |
| 20260906203047 | 88 | 360 | 4.3 | 0.0 | 0.00 | 0.00 | 0.02 | 49 | 1008.1 |
| 20260906202546 | 87 | 360 | 3.5 | 0.0 | 0.00 | 0.00 | 0.02 | 51 | 1008.2 |
| 20260906202046 | 87 | 360 | 2.6 | 0.0 | 0.00 | 0.00 | 0.02 | 51 | 1008.2 |
| 20260906201557 | 87 | 360 | 3.5 | 0.0 | 0.00 | 0.00 | 0.02 | 51 | 1008.3 |
| 20260906201044 | 87 | 360 | 3.5 | 0.0 | 0.00 | 0.00 | 0.02 | 52 | 1008.2 |
| 20260906200544 | 86 | 360 | 1.7 | 0.0 | 0.00 | 0.00 | 0.02 | 54 | 1008.3 |
| 20260906200043 | 85 | 360 | 2.6 | 0.0 | 0.00 | 0.00 | 0.02 | 55 | 1008.2 |
| 20260906195541 | 85 | 360 | 3.5 | 0.0 | 0.00 | 0.00 | 0.02 | 56 | 1008.3 |
| 20260906195044 | 85 | 360 | 3.5 | 0.0 | 0.00 | 0.00 | 0.02 | 57 | 1008.4 |
| 20260906194041 | 84 | 360 | 5.2 | 0.0 | 0.00 | 0.00 | 0.02 | 57 | 1008.7 |
| 20260906193540 | 85 | 360 | 5.2 | 0.0 | 0.00 | 0.00 | 0.02 | 57 | 1008.8 |
| 20260906193039 | 84 | 360 | 5.2 | 0.0 | 0.00 | 0.00 | 0.02 | 57 | 1008.9 |
| 20260906192540 | 84 | 360 | 5.2 | 0.0 | 0.00 | 0.00 | 0.02 | 58 | 1008.9 |
| 20260906192039 | 84 | 360 | 4.3 | 0.0 | 0.00 | 0.00 | 0.02 | 60 | 1009.0 |
| 20260906191539 | 83 | 360 | 4.3 | 0.0 | 0.00 | 0.00 | 0.02 | 60 | 1008.9 |
| 20260906191041 | 83 | 360 | 4.3 | 0.0 | 0.00 | 0.00 | 0.02 | 60 | 1009.0 |
| 20260906190538 | 83 | 360 | 5.2 | 0.0 | 0.00 | 0.00 | 0.02 | 59 | 1009.1 |
| 20260906190044 | 84 | 360 | 4.3 | 0.0 | 0.00 | 0.00 | 0.02 | 59 | 1009.2 |
| 20260906185536 | 83 | 360 | 4.3 | 0.0 | 0.00 | 0.00 | 0.02 | 60 | 1009.1 |
| 20260906185037 | 83 | 360 | 4.3 | 0.0 | 0.00 | 0.00 | 0.02 | 60 | 1009.1 |
| 20260906184035 | 82 | 360 | 4.3 | 0.0 | 0.00 | 0.00 | 0.02 | 64 | 1009.1 |
| 20260906183535 | 82 | 360 | 3.5 | 0.0 | 0.00 | 0.00 | 0.02 | 64 | 1009.2 |
| 20260906183054 | 81 | 360 | 3.5 | 0.0 | 0.00 | 0.00 | 0.02 | 65 | 1009.2 |
| 20260906182532 | 81 | 360 | 3.5 | 0.0 | 0.00 | 0.00 | 0.02 | 66 | 1009.1 |
| 20260906182035 | 81 | 360 | 3.5 | 0.0 | 0.00 | 0.00 | 0.02 | 66 | 1009.2 |
| 20260906181531 | 81 | 360 | 3.5 | 0.0 | 0.00 | 0.00 | 0.02 | 68 | 1009.2 |
| 20260906181030 | 80 | 360 | 3.5 | 0.0 | 0.00 | 0.00 | 0.02 | 68 | 1009.2 |
| 20260906180530 | 80 | 360 | 2.6 | 0.0 | 0.00 | 0.00 | 0.02 | 69 | 1009.2 |
| 20260906180028 | 80 | 360 | 1.7 | 0.0 | 0.00 | 0.00 | 0.02 | 69 | 1009.2 |
| 20260906175527 | 79 | 360 | 2.6 | 0.0 | 0.00 | 0.00 | 0.02 | 69 | 1009.3 |
| 20260906175026 | 79 | 360 | 2.6 | 0.0 | 0.00 | 0.00 | 0.02 | 72 | 1009.3 |
| 20260906174025 | 78 | 360 | 1.7 | 0.0 | 0.00 | 0.00 | 0.02 | 75 | 1009.3 |
| 20260906173524 | 77 | 360 | 2.6 | 0.0 | 0.00 | 0.00 | 0.02 | 75 | 1009.5 |
| 20260906173025 | 78 | 360 | 2.6 | 0.0 | 0.00 | 0.00 | 0.02 | 76 | 1009.5 |
| 20260906172522 | 77 | 360 | 1.7 | 0.0 | 0.00 | 0.00 | 0.02 | 77 | 1009.4 |
| 20260906172024 | 77 | 360 | 1.7 | 0.0 | 0.00 | 0.00 | 0.02 | 78 | 1009.5 |
| 20260906171522 | 76 | 360 | 1.7 | 0.0 | 0.00 | 0.00 | 0.02 | 80 | 1009.5 |
| 20260906171019 | 76 | 360 | 2.6 | 0.0 | 0.00 | 0.00 | 0.02 | 82 | 1009.4 |
| 20260906170517 | 75 | 360 | 3.5 | 0.0 | 0.00 | 0.00 | 0.02 | 83 | 1009.2 |
| 20260906170019 | 75 | 42 | 4.3 | 0.0 | 0.00 | 0.00 | 0.02 | 85 | 1009.1 |
| 20260906165516 | 74 | 360 | 3.5 | 0.0 | 0.00 | 0.00 | 0.02 | 88 | 1009.1 |
| 20260906165018 | 73 | 360 | 3.5 | 0.0 | 0.00 | 0.00 | 0.02 | 90 | 1009.1 |
| 20260906164015 | 71 | 360 | 4.3 | 0.0 | 0.00 | 0.00 | 0.02 | 93 | 1009.1 |
| 20260906163514 | 71 | 40 | 3.5 | 0.0 | 0.00 | 0.00 | 0.02 | 93 | 1009.4 |
| 20260906163012 | 70 | 360 | 2.6 | 0.0 | 0.00 | 0.00 | 0.02 | 94 | 1009.9 |
| 20260906162513 | 69 | 360 | 2.6 | 0.0 | 0.00 | 0.00 | 0.02 | 95 | 1009.4 |
| 20260906162008 | 68 | 360 | 2.6 | 0.0 | 0.00 | 0.00 | 0.02 | 94 | 1009.7 |
| 20260906161508 | 68 | 360 | 2.6 | 0.0 | 0.00 | 0.00 | 0.02 | 94 | 1009.7 |
| 20260906161007 | 68 | 360 | 3.5 | 0.0 | 0.00 | 0.00 | 0.02 | 95 | 1009.9 |
| 20260906160507 | 68 | 360 | 5.2 | 0.0 | 0.00 | 0.00 | 0.02 | 94 | 1009.7 |
| 20260906160006 | 68 | 360 | 5.2 | 0.0 | 0.00 | 0.00 | 0.02 | 95 | 1009.3 |
| 20260906155506 | 68 | 360 | 3.5 | 0.0 | 0.00 | 0.00 | 0.02 | 95 | 1009.2 |
| 20260906155006 | 68 | 360 | 3.5 | 0.0 | 0.00 | 0.00 | 0.02 | 95 | 1009.8 |
| 20260906154007 | 68 | 360 | 4.3 | 0.0 | 0.00 | 0.00 | 0.02 | 95 | 1010.1 |
| 20260906153506 | 68 | 360 | 3.5 | 0.0 | 0.00 | 0.00 | 0.02 | 95 | 1009.8 |
| 20260906153007 | 68 | 360 | 4.3 | 0.0 | 0.00 | 0.00 | 0.02 | 95 | 1008.9 |
| 20260906152506 | 68 | 360 | 4.3 | 0.0 | 0.00 | 0.00 | 0.02 | 95 | 1008.8 |
| 20260906152006 | 68 | 360 | 3.5 | 0.0 | 0.00 | 0.00 | 0.02 | 94 | 1009.1 |
| 20260906151519 | 68 | 360 | 3.5 | 0.0 | 0.00 | 0.00 | 0.02 | 95 | 1009.2 |
| 20260906151007 | 68 | 360 | 3.5 | 0.0 | 0.00 | 0.00 | 0.02 | 94 | 1009.4 |
| 20260906150505 | 67 | 360 | 5.2 | 0.0 | 0.00 | 0.00 | 0.02 | 94 | 1009.1 |
| 20260906150007 | 67 | 360 | 7.0 | 0.0 | 0.00 | 0.00 | 0.02 | 94 | 1008.7 |
| 20260906145504 | 67 | 360 | 6.1 | 0.0 | 0.00 | 0.00 | 0.02 | 94 | 1008.8 |
| 20260906145004 | 67 | 360 | 4.3 | 0.0 | 0.00 | 0.00 | 0.02 | 94 | 1009.8 |
| 20260906144003 | 67 | 360 | 3.5 | 0.0 | 0.00 | 0.00 | 0.01 | 94 | 1010.7 |
| 20260906143503 | 67 | 360 | 4.3 | 0.0 | 0.00 | 0.00 | 0.01 | 94 | 1011.1 |
| 20260906143003 | 67 | 360 | 6.1 | 0.0 | 0.00 | 0.00 | 0.01 | 94 | 1011.1 |
| 20260906142505 | 68 | 360 | 6.1 | 0.0 | 0.00 | 0.00 | 0.00 | 95 | 1010.4 |
| 20260906142003 | 68 | 360 | 4.3 | 0.0 | 0.00 | 0.00 | 0.00 | 95 | 1010.5 |
| 20260906141502 | 67 | 360 | 4.3 | 0.0 | 0.00 | 0.00 | 0.00 | 95 | 1010.8 |
| 20260906141004 | 66 | 360 | 4.3 | 0.0 | 0.00 | 0.00 | 0.00 | 95 | 1010.8 |
| 20260906140502 | 66 | 360 | 4.3 | 0.0 | 0.00 | 0.00 | 0.00 | 95 | 1011.0 |
| 20260906140001 | 66 | 360 | 4.3 | 0.0 | 0.00 | 0.00 | 0.00 | 95 | 1011.0 |
| 20260906135502 | 66 | 360 | 4.3 | 0.0 | 0.00 | 0.00 | 0.00 | 95 | 1011.4 |
| 20260906135002 | 65 | 360 | 3.5 | 0.0 | 0.00 | 0.00 | 0.00 | 95 | 1010.9 |
| 20260906134100 | 65 | 360 | 3.5 | 0.0 | 0.00 | 0.00 | 0.00 | 95 | 1011.4 |
| 20260906133600 | 65 | 360 | 2.6 | 0.0 | 0.00 | 0.00 | 0.00 | 95 | 1011.1 |
| 20260906133107 | 65 | 360 | 1.7 | 0.0 | 0.00 | 0.00 | 0.00 | 95 | 1011.4 |
| 20260906132601 | 65 | 360 | 3.5 | 0.0 | 0.00 | 0.00 | 0.00 | 95 | 1011.4 |
| 20260906132059 | 65 | 360 | 4.3 | 0.0 | 0.00 | 0.00 | 0.00 | 95 | 1010.8 |
| 20260906131605 | 65 | 360 | 4.3 | 0.0 | 0.00 | 0.00 | 0.00 | 95 | 1010.8 |
| 20260906131058 | 65 | 360 | 4.3 | 0.0 | 0.00 | 0.00 | 0.00 | 95 | 1010.5 |
| 20260906130558 | 65 | 360 | 4.3 | 0.0 | 0.00 | 0.00 | 0.00 | 95 | 1010.2 |
| 20260906130109 | 65 | 360 | 4.3 | 0.0 | 0.00 | 0.00 | 0.00 | 95 | 1010.1 |
| 20260906125602 | 65 | 360 | 4.3 | 0.0 | 0.00 | 0.00 | 0.00 | 95 | 1010.1 |
| 20260906125058 | 65 | 360 | 3.5 | 0.0 | 0.00 | 0.00 | 0.00 | 95 | 1010.1 |
| 20260906124101 | 64 | 360 | 2.6 | 0.0 | 0.00 | 0.00 | 0.00 | 95 | 1010.5 |
| 20260906123600 | 64 | 360 | 2.6 | 0.0 | 0.00 | 0.00 | 0.00 | 95 | 1010.5 |
| 20260906123058 | 64 | 360 | 2.6 | 0.0 | 0.00 | 0.00 | 0.00 | 95 | 1010.4 |
| 20260906122557 | 64 | 360 | 1.7 | 0.0 | 0.00 | 0.00 | 0.00 | 95 | 1010.8 |
| 20260906122101 | 64 | 360 | 0.9 | 0.0 | 0.00 | 0.00 | 0.00 | 95 | 1010.8 |
| 20260906121606 | 63 | 360 | 1.7 | 0.0 | 0.00 | 0.00 | 0.00 | 95 | 1010.8 |
| 20260906121056 | 63 | 360 | 1.7 | 0.0 | 0.00 | 0.00 | 0.00 | 95 | 1010.9 |
| 20260906120556 | 62 | 360 | 1.7 | 0.0 | 0.00 | 0.00 | 0.00 | 95 | 1010.7 |
| 20260906120057 | 62 | 360 | 0.9 | 0.0 | 0.00 | 0.00 | 0.00 | 94 | 1011.0 |
| 20260906115557 | 62 | 360 | 0.0 | 0.0 | 0.00 | 0.00 | 0.00 | 94 | 1011.0 |
| 20260906115056 | 62 | 360 | 0.0 | 0.0 | 0.00 | 0.00 | 0.00 | 94 | 1011.0 |
| 20260906114054 | 62 | 360 | 0.0 | 0.0 | 0.00 | 0.00 | 0.00 | 94 | 1010.7 |
| 20260906113554 | 63 | 360 | 0.0 | 0.0 | 0.00 | 0.00 | 0.00 | 94 | 1010.8 |
| 20260906113057 | 63 | 360 | 0.0 | 0.0 | 0.00 | 0.00 | 0.00 | 94 | 1010.6 |
| 20260906112553 | 63 | 360 | 0.9 | 0.0 | 0.00 | 0.00 | 0.00 | 94 | 1010.7 |
| 20260906112053 | 62 | 360 | 0.9 | 0.0 | 0.00 | 0.00 | 0.00 | 94 | 1010.4 |
| 20260906111553 | 62 | 360 | 0.9 | 0.0 | 0.00 | 0.00 | 0.00 | 93 | 1010.2 |
| 20260906111051 | 63 | 360 | 0.9 | 0.0 | 0.00 | 0.00 | 0.00 | 93 | 1010.3 |
| 20260906110553 | 63 | 360 | 0.9 | 0.0 | 0.00 | 0.00 | 0.00 | 94 | 1010.4 |
| 20260906110049 | 63 | 360 | 0.9 | 0.0 | 0.00 | 0.00 | 0.00 | 94 | 1010.4 |
| 20260906105550 | 63 | 360 | 0.9 | 0.0 | 0.00 | 0.00 | 0.00 | 94 | 1010.2 |
| 20260906105049 | 63 | 360 | 0.9 | 0.0 | 0.00 | 0.00 | 0.00 | 93 | 1010.3 |
| 20260906104049 | 64 | 360 | 0.0 | 0.0 | 0.00 | 0.00 | 0.00 | 93 | 1010.2 |
| 20260906103553 | 64 | 360 | 0.0 | 0.0 | 0.00 | 0.00 | 0.00 | 93 | 1010.3 |
| 20260906103049 | 64 | 360 | 0.9 | 0.0 | 0.00 | 0.00 | 0.00 | 93 | 1010.2 |
| 20260906102548 | 64 | 360 | 1.7 | 0.0 | 0.00 | 0.00 | 0.00 | 94 | 1010.1 |
| 20260906102049 | 64 | 360 | 2.6 | 0.0 | 0.00 | 0.00 | 0.00 | 93 | 1010.0 |
| 20260906101548 | 64 | 360 | 2.6 | 0.0 | 0.00 | 0.00 | 0.00 | 93 | 1009.8 |
| 20260906101048 | 64 | 360 | 2.6 | 0.0 | 0.00 | 0.00 | 0.00 | 93 | 1009.8 |
| 20260906100547 | 64 | 360 | 1.7 | 0.0 | 0.00 | 0.00 | 0.00 | 93 | 1009.8 |
| 20260906100045 | 64 | 360 | 1.7 | 0.0 | 0.00 | 0.00 | 0.00 | 93 | 1010.0 |
| 20260906095544 | 65 | 360 | 2.6 | 0.0 | 0.00 | 0.00 | 0.00 | 93 | 1009.9 |
| 20260906095048 | 65 | 360 | 2.6 | 0.0 | 0.00 | 0.00 | 0.00 | 93 | 1009.9 |
| 20260906094043 | 65 | 360 | 2.6 | 0.0 | 0.00 | 0.00 | 0.00 | 93 | 1010.1 |
| 20260906093543 | 65 | 360 | 1.7 | 0.0 | 0.00 | 0.00 | 0.00 | 92 | 1010.1 |
| 20260906093042 | 66 | 360 | 1.7 | 0.0 | 0.00 | 0.00 | 0.00 | 93 | 1010.0 |
| 20260906092543 | 66 | 360 | 1.7 | 0.0 | 0.00 | 0.00 | 0.00 | 93 | 1009.9 |
| 20260906092041 | 66 | 360 | 2.6 | 0.0 | 0.00 | 0.00 | 0.00 | 93 | 1009.8 |
| 20260906091541 | 66 | 360 | 2.6 | 0.0 | 0.00 | 0.00 | 0.00 | 92 | 1009.7 |
| 20260906091040 | 66 | 360 | 1.7 | 0.0 | 0.00 | 0.00 | 0.00 | 92 | 1009.8 |
| 20260906090540 | 66 | 360 | 2.6 | 0.0 | 0.00 | 0.00 | 0.00 | 93 | 1009.7 |
| 20260906090042 | 66 | 360 | 2.6 | 0.0 | 0.00 | 0.00 | 0.00 | 93 | 1009.7 |
| 20260906085540 | 66 | 360 | 2.6 | 0.0 | 0.00 | 0.00 | 0.00 | 92 | 1009.8 |
| 20260906085039 | 66 | 360 | 2.6 | 0.0 | 0.00 | 0.00 | 0.00 | 92 | 1009.8 |
| 20260906084039 | 66 | 360 | 1.7 | 0.0 | 0.00 | 0.00 | 0.00 | 92 | 1009.9 |
| 20260906083538 | 66 | 360 | 1.7 | 0.0 | 0.00 | 0.00 | 0.00 | 92 | 1010.0 |
| 20260906083038 | 66 | 360 | 1.7 | 0.0 | 0.00 | 0.00 | 0.00 | 92 | 1010.1 |
| 20260906082537 | 66 | 360 | 2.6 | 0.0 | 0.00 | 0.00 | 0.00 | 91 | 1010.1 |
| 20260906082039 | 67 | 360 | 2.6 | 0.0 | 0.00 | 0.00 | 0.00 | 92 | 1010.0 |
| 20260906081543 | 67 | 360 | 2.6 | 0.0 | 0.00 | 0.00 | 0.00 | 91 | 1010.1 |
| 20260906081036 | 67 | 360 | 2.6 | 0.0 | 0.00 | 0.00 | 0.00 | 91 | 1010.0 |
| 20260906080536 | 67 | 360 | 3.5 | 0.0 | 0.00 | 0.00 | 0.00 | 91 | 1010.2 |
| 20260906080035 | 67 | 360 | 2.6 | 0.0 | 0.00 | 0.00 | 0.00 | 91 | 1010.3 |
| 20260906075533 | 67 | 360 | 2.6 | 0.0 | 0.00 | 0.00 | 0.00 | 91 | 1010.1 |
| 20260906075035 | 67 | 360 | 2.6 | 0.0 | 0.00 | 0.00 | 0.00 | 91 | 1010.3 |
| 20260906074032 | 67 | 360 | 1.7 | 0.0 | 0.00 | 0.00 | 0.00 | 90 | 1010.3 |
| 20260906073532 | 68 | 360 | 2.6 | 0.0 | 0.00 | 0.00 | 0.00 | 90 | 1010.3 |
| 20260906073032 | 68 | 360 | 2.6 | 0.0 | 0.00 | 0.00 | 0.00 | 90 | 1010.3 |
| 20260906072531 | 68 | 360 | 2.6 | 0.0 | 0.00 | 0.00 | 0.00 | 90 | 1010.4 |
| 20260906072033 | 68 | 360 | 2.6 | 0.0 | 0.00 | 0.00 | 0.00 | 90 | 1010.4 |
| 20260906071530 | 68 | 360 | 2.6 | 0.0 | 0.00 | 0.00 | 0.00 | 90 | 1010.5 |
| 20260906071033 | 68 | 360 | 2.6 | 0.0 | 0.00 | 0.00 | 0.00 | 89 | 1010.6 |
| 20260906070533 | 69 | 360 | 2.6 | 0.0 | 0.00 | 0.00 | 0.00 | 89 | 1010.7 |
| 20260906070031 | 69 | 360 | 1.7 | 0.0 | 0.00 | 0.00 | 0.00 | 90 | 1010.7 |
| 20260906065530 | 69 | 360 | 1.7 | 0.0 | 0.00 | 0.00 | 0.00 | 89 | 1010.6 |
| 20260906065033 | 69 | 360 | 2.6 | 0.0 | 0.00 | 0.00 | 0.00 | 90 | 1010.7 |
| 20260906064030 | 68 | 360 | 1.7 | 0.0 | 0.00 | 0.00 | 0.00 | 90 | 1010.7 |
| 20260906063529 | 68 | 360 | 1.7 | 0.0 | 0.00 | 0.00 | 0.00 | 89 | 1010.7 |
| 20260906063030 | 68 | 360 | 1.7 | 0.0 | 0.00 | 0.00 | 0.00 | 89 | 1010.7 |
| 20260906062529 | 68 | 360 | 1.7 | 0.0 | 0.00 | 0.00 | 0.00 | 89 | 1010.7 |
| 20260906062032 | 68 | 360 | 1.7 | 0.0 | 0.00 | 0.00 | 0.00 | 89 | 1010.6 |
| 20260906061529 | 68 | 360 | 2.6 | 0.0 | 0.00 | 0.00 | 0.00 | 88 | 1010.6 |
| 20260906061029 | 68 | 360 | 2.6 | 0.0 | 0.00 | 0.00 | 0.00 | 88 | 1010.7 |
| 20260906060529 | 69 | 360 | 2.6 | 0.0 | 0.00 | 0.00 | 0.00 | 88 | 1010.7 |
| 20260906060033 | 69 | 360 | 2.6 | 0.0 | 0.00 | 0.00 | 0.00 | 88 | 1010.7 |
| 20260906055530 | 69 | 360 | 2.6 | 0.0 | 0.00 | 0.00 | 0.00 | 88 | 1010.7 |
| 20260906055030 | 69 | 360 | 2.6 | 0.0 | 0.00 | 0.00 | 0.00 | 88 | 1010.8 |
| 20260906054029 | 69 | 360 | 2.6 | 0.0 | 0.00 | 0.00 | 0.00 | 87 | 1010.8 |
| 20260906053530 | 69 | 360 | 2.6 | 0.0 | 0.00 | 0.00 | 0.00 | 87 | 1010.7 |
| 20260906053033 | 69 | 360 | 1.7 | 0.0 | 0.00 | 0.00 | 0.00 | 87 | 1010.7 |
| 20260906052528 | 69 | 360 | 1.7 | 0.0 | 0.00 | 0.00 | 0.00 | 86 | 1010.7 |
| 20260906052029 | 70 | 360 | 2.6 | 0.0 | 0.00 | 0.00 | 0.00 | 86 | 1010.7 |
| 20260906051528 | 70 | 360 | 1.7 | 0.0 | 0.00 | 0.00 | 0.00 | 86 | 1010.7 |
| 20260906051028 | 70 | 360 | 1.7 | 0.0 | 0.00 | 0.00 | 0.00 | 85 | 1010.7 |
| 20260906050527 | 71 | 360 | 1.7 | 0.0 | 0.00 | 0.00 | 0.00 | 84 | 1010.6 |
| 20260906050033 | 71 | 360 | 1.7 | 0.0 | 0.00 | 0.00 | 0.00 | 85 | 1010.6 |
| 20260906045527 | 71 | 360 | 1.7 | 0.0 | 0.00 | 0.00 | 0.00 | 84 | 1010.6 |
| 20260906045031 | 71 | 360 | 1.7 | 0.0 | 0.00 | 0.00 | 0.00 | 84 | 1010.6 |
| 20260906044028 | 72 | 360 | 1.7 | 0.0 | 0.00 | 0.00 | 0.00 | 83 | 1010.6 |
| 20260906043530 | 72 | 360 | 2.6 | 0.0 | 0.00 | 0.00 | 0.00 | 83 | 1010.6 |
| 20260906043027 | 72 | 360 | 2.6 | 0.0 | 0.00 | 0.00 | 0.00 | 83 | 1010.6 |
| 20260906042526 | 73 | 360 | 2.6 | 0.0 | 0.00 | 0.00 | 0.00 | 83 | 1010.6 |
| 20260906042027 | 73 | 360 | 3.5 | 0.0 | 0.00 | 0.00 | 0.00 | 82 | 1010.5 |
| 20260906041531 | 73 | 360 | 4.3 | 0.0 | 0.00 | 0.00 | 0.00 | 82 | 1010.5 |
| 20260906041026 | 73 | 360 | 4.3 | 0.0 | 0.00 | 0.00 | 0.00 | 82 | 1010.7 |
| 20260906040526 | 73 | 360 | 4.3 | 0.0 | 0.00 | 0.00 | 0.00 | 82 | 1010.6 |
| 20260906040029 | 74 | 360 | 4.3 | 0.0 | 0.00 | 0.00 | 0.00 | 81 | 1010.6 |
| 20260906035526 | 74 | 360 | 4.3 | 0.0 | 0.00 | 0.00 | 0.00 | 81 | 1010.5 |
| 20260906035026 | 74 | 360 | 4.3 | 0.0 | 0.00 | 0.00 | 0.00 | 80 | 1010.6 |
| 20260906034026 | 75 | 360 | 6.1 | 0.0 | 0.00 | 0.00 | 0.00 | 79 | 1010.6 |
| 20260906033525 | 75 | 360 | 7.0 | 0.0 | 0.00 | 0.00 | 0.00 | 79 | 1010.6 |
| 20260906033038 | 75 | 360 | 7.0 | 0.0 | 0.00 | 0.00 | 0.00 | 79 | 1010.6 |
| 20260906032525 | 76 | 360 | 7.0 | 0.0 | 0.00 | 0.00 | 0.00 | 79 | 1010.7 |
| 20260906032025 | 75 | 360 | 6.1 | 0.0 | 0.00 | 0.00 | 0.00 | 79 | 1010.6 |
| 20260906031528 | 75 | 360 | 5.2 | 0.0 | 0.00 | 0.00 | 0.00 | 79 | 1010.5 |
| 20260906031024 | 75 | 360 | 5.2 | 0.0 | 0.00 | 0.00 | 0.00 | 78 | 1010.5 |
| 20260906030525 | 75 | 360 | 5.2 | 0.0 | 0.00 | 0.00 | 0.00 | 77 | 1010.4 |
| 20260906030023 | 76 | 360 | 6.1 | 0.0 | 0.00 | 0.00 | 0.00 | 77 | 1010.3 |
| 20260906025522 | 76 | 360 | 6.1 | 0.0 | 0.00 | 0.00 | 0.00 | 77 | 1010.3 |
| 20260906025025 | 76 | 360 | 6.1 | 0.0 | 0.00 | 0.00 | 0.00 | 76 | 1010.2 |
| 20260906024023 | 76 | 360 | 7.0 | 0.0 | 0.00 | 0.00 | 0.00 | 75 | 1010.0 |
| 20260906023520 | 76 | 360 | 7.0 | 0.0 | 0.00 | 0.00 | 0.00 | 74 | 1009.8 |
| 20260906023024 | 77 | 360 | 7.0 | 0.0 | 0.00 | 0.00 | 0.00 | 74 | 1010.0 |
| 20260906022523 | 77 | 360 | 7.0 | 0.0 | 0.00 | 0.00 | 0.00 | 73 | 1009.9 |
| 20260906022019 | 77 | 360 | 7.0 | 0.0 | 0.00 | 0.00 | 0.00 | 72 | 1009.8 |
| 20260906021519 | 78 | 360 | 7.0 | 0.0 | 0.00 | 0.00 | 0.00 | 72 | 1009.7 |
| 20260906021019 | 78 | 360 | 7.0 | 0.0 | 0.00 | 0.00 | 0.00 | 72 | 1009.8 |
| 20260906020519 | 78 | 360 | 7.0 | 0.0 | 0.00 | 0.00 | 0.00 | 71 | 1009.7 |
| 20260906020019 | 78 | 360 | 6.1 | 0.0 | 0.00 | 0.00 | 0.00 | 71 | 1009.8 |
| 20260906015518 | 79 | 360 | 7.0 | 0.0 | 0.00 | 0.00 | 0.00 | 70 | 1009.7 |
| 20260906015018 | 79 | 38 | 6.1 | 0.0 | 0.00 | 0.00 | 0.00 | 70 | 1009.7 |
| 20260906014016 | 80 | 360 | 5.2 | 0.0 | 0.00 | 0.00 | 0.00 | 69 | 1009.5 |
| 20260906013517 | 80 | 360 | 4.3 | 0.0 | 0.00 | 0.00 | 0.00 | 69 | 1009.4 |
| 20260906013020 | 80 | 360 | 4.3 | 0.0 | 0.00 | 0.00 | 0.00 | 68 | 1009.3 |
| 20260906012519 | 80 | 360 | 4.3 | 0.0 | 0.00 | 0.00 | 0.00 | 67 | 1009.2 |
| 20260906012017 | 81 | 360 | 3.5 | 0.0 | 0.00 | 0.00 | 0.00 | 66 | 1009.2 |
| 20260906011520 | 81 | 360 | 3.5 | 0.0 | 0.00 | 0.00 | 0.00 | 66 | 1009.1 |
| 20260906011016 | 82 | 360 | 2.6 | 0.0 | 0.00 | 0.00 | 0.00 | 64 | 1008.8 |
| 20260906010519 | 83 | 360 | 2.6 | 0.0 | 0.00 | 0.00 | 0.00 | 63 | 1008.8 |
| 20260906010015 | 83 | 360 | 1.7 | 0.0 | 0.00 | 0.00 | 0.00 | 62 | 1008.7 |
| 20260906005515 | 83 | 360 | 1.7 | 0.0 | 0.00 | 0.00 | 0.00 | 62 | 1008.4 |
| 20260906005017 | 84 | 360 | 2.6 | 0.0 | 0.00 | 0.00 | 0.00 | 61 | 1008.4 |
| 20260906004015 | 84 | 360 | 2.6 | 0.0 | 0.00 | 0.00 | 0.00 | 61 | 1008.4 |
| 20260906003518 | 84 | 360 | 2.6 | 0.0 | 0.00 | 0.00 | 0.00 | 61 | 1008.3 |
| 20260906003015 | 84 | 360 | 2.6 | 0.0 | 0.00 | 0.00 | 0.00 | 60 | 1008.4 |
| 20260906002514 | 84 | 360 | 2.6 | 0.0 | 0.00 | 0.00 | 0.00 | 60 | 1008.5 |
| 20260906002015 | 84 | 360 | 3.5 | 0.0 | 0.00 | 0.00 | 0.00 | 60 | 1008.6 |
| 20260906001515 | 84 | 360 | 4.3 | 0.0 | 0.00 | 0.00 | 0.00 | 60 | 1008.5 |
| 20260906001013 | 84 | 360 | 3.5 | 0.0 | 0.00 | 0.00 | 0.00 | 59 | 1008.5 |
| 20260906000514 | 85 | 360 | 3.5 | 0.0 | 0.00 | 0.00 | 0.00 | 59 | 1008.6 |
| 20260906000014 | 85 | 360 | 3.5 | 0.0 | 0.00 | 0.00 | 0.00 | 59 | 1008.6 |
| 20260905235515 | 85 | 360 | 4.3 | 0.0 | 0.00 | 0.00 | 0.00 | 59 | 1008.5 |
| 20260905235018 | 85 | 360 | 5.2 | 0.0 | 0.00 | 0.00 | 0.00 | 59 | 1008.5 |
| 20260905234014 | 85 | 360 | 4.3 | 0.0 | 0.00 | 0.00 | 0.00 | 59 | 1008.5 |
| 20260905233515 | 85 | 360 | 5.2 | 0.0 | 0.00 | 0.00 | 0.00 | 60 | 1008.4 |
| 20260905233013 | 85 | 360 | 5.2 | 0.0 | 0.00 | 0.00 | 0.00 | 59 | 1008.4 |
| 20260905232513 | 85 | 360 | 4.3 | 0.0 | 0.00 | 0.00 | 0.00 | 60 | 1008.3 |
| 20260905232013 | 84 | 360 | 6.1 | 0.0 | 0.00 | 0.00 | 0.00 | 60 | 1008.2 |
| 20260905231512 | 85 | 360 | 6.1 | 0.0 | 0.00 | 0.00 | 0.00 | 60 | 1008.2 |
| 20260905231012 | 85 | 360 | 4.3 | 0.0 | 0.00 | 0.00 | 0.00 | 60 | 1008.2 |
| 20260905230512 | 84 | 360 | 4.3 | 0.0 | 0.00 | 0.00 | 0.00 | 60 | 1008.2 |
| 20260905230012 | 84 | 360 | 4.3 | 0.0 | 0.00 | 0.00 | 0.00 | 59 | 1008.2 |
| 20260905225512 | 84 | 360 | 3.5 | 0.0 | 0.00 | 0.00 | 0.00 | 60 | 1008.2 |
| 20260905225012 | 84 | 360 | 4.3 | 0.0 | 0.00 | 0.00 | 0.00 | 59 | 1008.2 |
| 20260905224014 | 85 | 360 | 3.5 | 0.0 | 0.00 | 0.00 | 0.00 | 59 | 1008.1 |
| 20260905223510 | 85 | 360 | 3.5 | 0.0 | 0.00 | 0.00 | 0.00 | 59 | 1008.1 |
| 20260905223010 | 84 | 360 | 4.3 | 0.0 | 0.00 | 0.00 | 0.00 | 59 | 1008.2 |
| 20260905222511 | 84 | 360 | 4.3 | 0.0 | 0.00 | 0.00 | 0.00 | 60 | 1008.2 |
| 20260905222009 | 84 | 360 | 4.3 | 0.0 | 0.00 | 0.00 | 0.00 | 60 | 1008.3 |
| 20260905221513 | 85 | 360 | 5.2 | 0.0 | 0.00 | 0.00 | 0.00 | 59 | 1008.2 |
| 20260905221010 | 85 | 360 | 4.3 | 0.0 | 0.00 | 0.00 | 0.00 | 59 | 1008.4 |
| 20260905220508 | 84 | 360 | 4.3 | 0.0 | 0.00 | 0.00 | 0.00 | 60 | 1008.5 |
| 20260905220008 | 84 | 360 | 5.2 | 0.0 | 0.00 | 0.00 | 0.00 | 60 | 1008.4 |
| 20260905215509 | 84 | 360 | 5.2 | 0.0 | 0.00 | 0.00 | 0.00 | 59 | 1008.5 |
| 20260905215007 | 84 | 360 | 4.3 | 0.0 | 0.00 | 0.00 | 0.00 | 60 | 1008.6 |